Flag for Japan Weather past 2 weeks in Yokohama, Japan

Now
63 °F

Partly sunny.


Feels Like: 63 °F
Forecast: 61 / 73 °F
Wind: 7 mph from North

Location: Tokyo International Airport

Current Time: Oct 26, 2014 at 7:24:01 AM

Latest Report: Oct 26, 2014 at 7:00 AM


Visibility: N/A

Pressure: 30.18 "Hg

Humidity: 77%

Dew point: 55 °F

Location of YokohamaLocation

Historic Weather in Yokohama — Graph

°F

Yokohama temperature yesterday

Maximum temperature yesterday: 68 °F (at 1:30 PM)
Minimum temperature yesterday: 55 °F (at 3:30 AM)
Average temperature yesterday: 63 °F

Past Weeks' High & Low Weather Summary

 TemperatureHumidityPressure
High81 °F (Oct 14, 10:00 AM)100% (Oct 13, 5:50 PM)30.36 "Hg (Oct 13, 5:50 PM)
Low55 °F (Oct 23, 7:30 AM)31% (Oct 17, 12:30 PM)29.06 "Hg (Oct 14, 3:00 AM)
Average64 °F72%30.04 "Hg
* Reported Oct 11 6:00 AM — Oct 26 6:30 AM, Yokohama, Weather by CustomWeather, © 2014

Note: Actual official high and low records may vary slightly from our data, if they occured in-between our weather recording intervals... More about our weather records

Advertising

Yokohama weather history for previous 24 hours

 ConditionsComfort  
Time TempWeatherWind HumidityBarometerVisibility
6:30 AM
Oct 26
63 °FPartly sunny.6 mph77%30.15 "HgN/A
6:00 AM63 °FPartly sunny.6 mph77%30.15 "HgN/A
5:30 AM63 °FPassing clouds.7 mph77%30.15 "HgN/A
5:00 AM63 °FPassing clouds.7 mph77%30.15 "HgN/A
4:30 AM63 °FPassing clouds.7 mph77%30.15 "HgN/A
4:00 AM64 °FPassing clouds.7 mph73%30.15 "HgN/A
3:30 AM64 °FPassing clouds.6 mph73%30.15 "HgN/A
3:00 AM64 °FPassing clouds.8 mph78%30.15 "HgN/A
2:30 AM64 °FPassing clouds.7 mph83%30.15 "HgN/A
2:00 AM64 °FPassing clouds.6 mph88%30.15 "HgN/A
1:30 AM64 °FPartly cloudy.3 mph88%30.15 "HgN/A
1:00 AM66 °FPassing clouds.3 mph83%30.18 "HgN/A
12:30 AM66 °FPassing clouds.1 mph88%30.18 "HgN/A
12:00 AM66 °FPassing clouds.1 mph88%30.18 "HgN/A
11:30 PM
Oct 25
66 °FPartly cloudy.2 mph88%30.18 "HgN/A
11:00 PM66 °FPassing clouds.2 mph88%30.18 "HgN/A
10:30 PM66 °FPassing clouds.3 mph88%30.18 "HgN/A
10:00 PM66 °FPassing clouds.2 mph88%30.18 "HgN/A
9:30 PM66 °FPassing clouds.2 mph88%30.21 "HgN/A
9:00 PM64 °FPassing clouds.5 mph88%30.18 "HgN/A
8:30 PM66 °FPassing clouds.6 mph88%30.18 "HgN/A
8:00 PM64 °FPassing clouds.8 mph88%30.18 "HgN/A
7:30 PM64 °FPassing clouds.7 mph88%30.18 "HgN/A
7:00 PM64 °FPassing clouds.8 mph88%30.18 "HgN/A
6:30 PM66 °FPassing clouds.8 mph83%30.18 "HgN/A
6:00 PM66 °FPassing clouds.9 mph83%30.18 "HgN/A
5:30 PM66 °FPassing clouds.8 mph78%30.18 "HgN/A
5:00 PM68 °FPassing clouds.8 mph73%30.18 "HgN/A
4:30 PM68 °FScattered clouds.8 mph73%30.18 "HgN/A
4:00 PM68 °FPartly sunny.6 mph78%30.15 "HgN/A
3:30 PM68 °FScattered clouds.7 mph78%30.15 "HgN/A
3:00 PM68 °FPassing clouds.3 mph73%30.15 "HgN/A
2:30 PM68 °FPassing clouds.5 mph73%30.15 "HgN/A
2:00 PM68 °FPassing clouds.5 mph73%30.15 "HgN/A
1:30 PM68 °FPassing clouds.3 mph69%30.15 "HgN/A
1:00 PM66 °FPartly sunny.3 mph73%30.15 "HgN/A
12:30 PM66 °FPartly sunny.5 mph73%30.18 "HgN/A
11:30 AM66 °FPartly sunny.3 mph68%30.21 "HgN/A
11:00 AM66 °FPartly sunny.5 mph64%30.21 "HgN/A
10:30 AM66 °FScattered clouds.5 mph68%30.21 "HgN/A
10:00 AM64 °FScattered clouds.3 mph68%30.21 "HgN/A
9:30 AM63 °FScattered clouds.2 mph73%30.24 "Hg6 mi
9:00 AM63 °FPassing clouds.3 mph73%30.24 "Hg6 mi
8:30 AM63 °FScattered clouds.3 mph73%30.24 "Hg6 mi
8:00 AM61 °FPassing clouds.5 mph77%30.24 "Hg6 mi
7:30 AM59 °FPartly sunny.3 mph82%30.21 "Hg6 mi
7:00 AM57 °FPassing clouds.3 mph88%30.21 "Hg6 mi
Weather by CustomWeather, © 2014

See weather overviewHow to use our weather pages